1497189600.95,22375,21.31,74348.5,16.21,-22.93,-21.97,0,*4F
1497189602.17,22376,21.31,74346.0,16.19,-22.11,-22.57,0,*42
1497189603.41,22377,21.31,74346.0,16.19,-23.65,-24.77,0,*45
1497189604.67,22378,21.31,74340.5,16.17,-26.07,-26.13,0,*45
1497189605.92,22379,21.31,74344.3,16.17,-25.09,-25.29,0,*43
1497189607.16,22380,21.31,74342.8,16.17,-26.61,-26.87,0,*4F
1497189608.37,22381,21.31,74342.8,16.15,-26.87,-27.07,0,*4D
1497189609.65,22382,21.31,74340.8,16.13,-24.15,-24.21,0,*46
1497189610.92,22383,21.31,74340.0,16.13,-20.53,-20.69,0,*49
1497189612.18,22384,21.31,74340.3,16.13,-17.45,-18.41,0,*4C
1497189613.42,22385,21.31,74340.0,16.13,-16.75,-17.35,0,*43
1497189614.67,22386,21.31,74340.8,16.11,-14.93,-15.89,0,*4D
1497189615.9,22387,21.31,74336.3,16.11,-14.23,-15.89,0,*47
1497189617.09,22388,21.31,74338.3,16.11,-13.15,-16.03,0,*4B
1497189618.31,22389,21.31,74336.8,16.11,-13.15,-16.51,0,*4D
1497189619.51,22390,21.31,74336.8,16.07,-13.43,-16.79,0,*4B
1497189620.73,22391,21.31,74340.3,16.07,-14.75,-19.17,0,*4F
1497189621.96,22392,21.31,74342.0,16.07,-15.35,-20.29,0,*4E
1497189623.16,22393,21.31,74340.0,16.07,-17.87,-21.17,0,*48
1497189624.36,22394,21.31,74344.5,16.11,-16.45,-19.75,0,*48
1497189625.65,22395,21.31,74342.8,16.13,-16.13,-17.79,0,*4A
1497189626.88,22396,21.31,74340.5,16.13,-15.99,-17.35,0,*40
1497189628.12,22397,21.31,74344.3,16.15,-15.85,-15.99,0,*4E
1497189629.35,22398,21.31,74346.8,16.15,-15.99,-15.39,0,*46
1497189630.57,22399,21.31,74344.3,16.19,-13.55,-12.97,0,*4E
1497189631.78,22400,21.31,74346.8,16.23,-13.23,-13.51,0,*4A
1497189633.02,22401,21.31,74344.0,16.27,-15.75,-16.51,0,*4F
1497189634.25,22402,21.31,74348.3,16.23,-15.85,-16.89,0,*42
1497189635.47,22403,21.31,74346.3,16.23,-17.55,-19.07,0,*45
1497189636.73,22404,21.31,74344.8,16.23,-16.65,-17.79,0,*47
1497189637.96,22405,21.31,74344.5,16.23,-18.17,-19.23,0,*4C
1497189639.23,22406,21.31,74350.0,16.27,-15.43,-15.57,0,*48
1497189640.49,22407,21.31,74348.3,16.27,-14.79,-16.51,0,*44
1497189641.71,22408,21.31,74346.3,16.27,-18.73,-20.59,0,*40
1497189642.97,22409,21.31,74348.8,16.27,-16.09,-17.11,0,*4A
1497189644.22,22410,21.31,74350.5,16.27,-13.69,-14.47,0,*41
1497189645.45,22411,21.31,74350.0,16.27,-13.07,-15.21,0,*49
1497189646.68,22412,21.31,74350.8,16.27,-15.15,-15.29,0,*47
1497189647.94,22413,21.31,74352.5,16.29,-15.49,-17.11,0,*48
1497189649.19,22414,21.31,74350.5,16.29,-15.89,-18.17,0,*4A
1497189650.43,22415,21.31,74348.5,16.31,-21.03,-22.11,0,*48
1497189651.64,22416,21.31,74344.5,16.31,-18.69,-19.17,0,*43
1497189652.9,22417,21.31,74348.3,16.29,-22.93,-23.95,0,*44
1497189654.14,22418,21.31,74344.0,16.29,-20.39,-21.39,0,*4D
1497189655.35,22419,21.31,74346.3,16.27,-20.29,-20.63,0,*4D
1497189656.64,22420,21.31,74346.5,16.29,-17.97,-19.65,0,*44
1497189657.9,22421,21.31,74344.5,16.29,-17.83,-18.31,0,*40
1497189659.14,22422,21.31,74348.0,16.33,-16.59,-15.99,0,*41
1497189660.41,22423,21.31,74348.5,16.33,-17.59,-16.59,0,*4E
1497189661.69,22424,21.31,74350.0,16.33,-17.93,-16.69,0,*4C
1497189662.95,22425,21.31,74346.0,16.37,-18.93,-16.83,0,*42
1497189664.22,22426,21.31,74344.0,16.37,-19.71,-21.87,0,*4C
1497189665.49,22427,21.31,74346.5,16.37,-21.97,-23.29,0,*48
1497189666.73,22428,21.31,74346.8,16.37,-20.89,-21.17,0,*46
1497189667.96,22429,21.31,74346.3,16.39,-20.25,-20.35,0,*4E
1497189669.2,22430,21.31,74346.3,16.39,-19.99,-20.35,0,*4B
1497189670.46,22431,21.31,74350.0,16.41,-20.43,-20.83,0,*45
1497189671.67,22432,21.31,74350.0,16.45,-19.91,-21.13,0,*4F
1497189672.91,22433,21.31,74348.8,16.45,-18.65,-20.99,0,*47
1497189674.15,22434,21.31,74348.8,16.45,-20.39,-22.17,0,*46
1497189675.41,22435,21.31,74348.3,16.45,-21.87,-23.65,0,*47
1497189676.67,22436,21.31,74346.8,16.43,-24.67,-25.81,0,*45
1497189677.9,22437,21.31,74346.5,16.43,-26.55,-27.55,0,*4C
1497189679.11,22438,21.31,74346.8,16.39,-25.19,-27.03,0,*46
1497189680.37,22439,21.31,74346.8,16.33,-21.39,-24.25,0,*4C
1497189681.64,22440,21.31,74346.0,16.31,-23.99,-25.71,0,*48
1497189682.9,22441,21.31,74348.3,16.29,-26.77,-27.77,0,*41
1497189684.14,22442,21.31,74344.8,16.23,-27.39,-28.31,0,*4E
1497189685.38,22443,21.31,74344.5,16.23,-26.61,-27.99,0,*4E
1497189686.59,22444,21.31,74348.8,16.19,-25.91,-28.53,0,*45
1497189687.83,22445,21.31,74348.5,16.15,-25.55,-27.07,0,*4E
1497189689.11,22446,21.31,74348.5,16.13,-25.29,-27.19,0,*4F
1497189690.34,22447,21.31,74346.0,16.11,-27.51,-28.63,0,*43
1497189691.58,22448,21.31,74344.5,16.05,-26.23,-26.93,0,*4C
1497189692.82,22449,21.31,74344.5,16.05,-21.43,-23.95,0,*4F
1497189694.09,22450,21.31,74346.0,16.05,-20.99,-23.29,0,*46
1497189695.29,22451,21.31,74346.5,16.07,-18.65,-19.91,0,*47
1497189696.49,22452,21.31,74344.3,16.07,-19.95,-20.73,0,*4C
1497189697.72,22453,21.31,74340.8,16.07,-22.41,-22.47,0,*49
1497189698.96,22454,21.31,74346.3,16.05,-20.83,-21.73,0,*44
1497189700.23,22455,21.31,74344.5,16.05,-23.33,-24.41,0,*49
1497189701.49,22456,21.31,74344.0,16.05,-24.25,-24.61,0,*48
1497189702.74,22457,21.31,74344.3,16.05,-22.53,-22.77,0,*4F
1497189703.97,22458,21.31,74342.8,16.05,-19.71,-20.05,0,*4F
1497189705.22,22459,21.31,74344.3,16.07,-18.93,-19.81,0,*47
1497189706.47,22460,21.31,74344.3,16.05,-18.45,-19.27,0,*48
1497189707.67,22461,21.31,74346.8,16.07,-18.17,-19.91,0,*41
1497189708.89,22462,21.31,74344.3,16.05,-20.05,-21.93,0,*41
1497189710.09,22463,21.31,74342.8,16.03,-24.77,-25.35,0,*4F
1497189711.28,22464,21.31,74344.3,16.03,-25.35,-24.77,0,*48
1497189712.51,22465,21.31,74340.8,16.03,-26.81,-24.97,0,*4B
1497189713.72,22466,21.31,74338.5,16.01,-25.65,-22.37,0,*4F
1497189714.98,22467,21.38,74344.8,15.97,-20.89,-17.97,0,*49
1497189716.22,22468,21.31,74340.8,15.99,-19.17,-16.09,0,*43
1497189717.47,22469,21.31,74346.8,15.97,-17.41,-13.51,0,*49
1497189718.75,22470,21.31,74344.3,15.97,-16.13,-12.35,0,*44
1497189720.04,22471,21.31,74346.3,15.97,-14.01,-11.07,0,*46
1497189721.28,22472,21.31,74344.0,15.93,-11.59,-10.45,0,*4E
1497189722.53,22473,21.38,74344.8,15.97,-10.41,-11.11,0,*43
1497189723.75,22474,21.31,74344.8,16.01,-11.15,-12.43,0,*4C
1497189725.01,22475,21.31,74344.3,16.03,-13.79,-15.39,0,*4D
1497189726.24,22476,21.31,74346.3,16.03,-13.83,-15.53,0,*47
1497189727.47,22477,21.31,74346.0,16.05,-13.93,-17.87,0,*4A
1497189728.74,22478,21.31,74344.8,16.05,-16.65,-20.35,0,*44
1497189730.0,22479,21.31,74346.8,16.05,-18.31,-20.29,0,*47
1497189731.25,22480,21.38,74348.0,16.07,-16.31,-17.07,0,*45
1497189732.49,22481,21.31,74346.8,16.07,-15.21,-15.85,0,*4E
1497189733.73,22482,21.31,74346.3,16.07,-13.97,-16.59,0,*44
1497189734.92,22483,21.31,74342.8,16.07,-20.73,-22.27,0,*41
1497189736.12,22484,21.31,74348.5,16.11,-18.69,-19.91,0,*44
1497189737.36,22485,21.31,74348.5,16.13,-20.69,-21.77,0,*4F
1497189738.59,22486,21.31,74346.0,16.11,-21.63,-20.53,0,*42
1497189739.81,22487,21.31,74344.5,16.11,-23.19,-22.41,0,*4D
1497189741.03,22488,21.31,74344.3,16.11,-21.73,-19.27,0,*44
1497189742.26,22489,21.31,74340.3,16.11,-20.49,-15.99,0,*44
1497189743.46,22490,21.31,74338.3,16.11,-16.59,-12.29,0,*44
1497189744.75,22491,21.31,74342.8,16.13,-14.79,-11.55,0,*4F
1497189745.98,22492,21.31,74340.3,16.13,-10.89,-9.79,0,*70
1497189747.26,22493,21.31,74340.5,16.13,-7.57,-7.99,0,*44
1497189748.47,22494,21.31,74342.5,16.15,-6.27,-7.53,0,*45
1497189749.74,22495,21.31,74342.8,16.17,-7.31,-9.61,0,*4F
1497189750.98,22496,21.31,74338.8,16.17,-9.01,-12.39,0,*76
1497189752.19,22497,21.31,74338.8,16.19,-11.23,-13.93,0,*41
1497189753.4,22498,21.31,74344.3,16.19,-11.01,-13.15,0,*40
1497189754.66,22499,21.31,74344.3,16.21,-9.37,-10.45,0,*70
1497189755.86,22500,21.31,74340.3,16.19,-8.17,-8.63,0,*44
1497189757.11,22501,21.31,74344.5,16.21,-9.19,-9.37,0,*41
1497189758.34,22502,21.31,74340.3,16.21,-11.45,-9.79,0,*78
1497189759.57,22503,21.31,74344.5,16.23,-10.41,-7.53,0,*78
1497189760.81,22504,21.31,74346.0,16.21,-10.45,-8.03,0,*73
1497189762.02,22505,21.31,74344.0,16.27,-11.11,-8.41,0,*72
1497189763.23,22506,21.31,74342.8,16.23,-11.45,-9.01,0,*71
1497189764.46,22507,21.31,74344.3,16.23,-12.39,-9.37,0,*7D
1497189765.7,22508,21.31,74342.0,16.27,-11.63,-7.23,0,*71
1497189766.92,22509,21.31,74344.0,16.23,-8.37,-5.73,0,*4A
1497189768.15,22510,21.31,74340.5,16.27,-6.85,-6.19,0,*4E
1497189769.37,22511,21.31,74344.8,16.29,-5.97,-5.97,0,*44
1497189770.63,22512,21.31,74344.5,16.29,-6.97,-6.85,0,*44
1497189771.88,22513,21.31,74348.8,16.31,-5.89,-5.15,0,*4A
1497189773.15,22514,21.31,74350.3,16.37,-5.07,-4.01,0,*49
1497189774.35,22515,21.31,74350.3,16.39,-6.05,-4.65,0,*45
1497189775.58,22516,21.31,74346.3,16.41,-6.51,-4.61,0,*4C
1497189776.86,22517,21.31,74346.0,16.41,-8.11,-4.81,0,*49
1497189778.07,22518,21.31,74344.0,16.45,-9.83,-6.13,0,*41
1497189779.3,22519,21.31,74348.0,16.47,-8.37,-5.43,0,*4A
1497189780.52,22520,21.31,74344.8,16.45,-8.81,-6.77,0,*4B
1497189781.76,22521,21.31,74344.8,16.49,-11.59,-10.23,0,*4D
1497189783.01,22522,21.31,74344.5,16.49,-12.83,-11.07,0,*4D
1497189784.28,22523,21.31,74346.3,16.47,-14.05,-13.07,0,*48
1497189785.56,22524,21.31,74346.8,16.47,-14.79,-14.75,0,*46
1497189786.82,22525,21.38,74348.3,16.47,-15.53,-15.89,0,*4C
1497189788.05,22526,21.31,74346.8,16.47,-13.65,-13.73,0,*4F
1497189789.29,22527,21.31,74346.8,16.47,-13.51,-17.31,0,*4B
1497189790.58,22528,21.31,74348.5,16.47,-14.47,-17.11,0,*46
1497189791.79,22529,21.31,74348.8,16.49,-15.29,-18.11,0,*4F
1497189793.08,22530,21.31,74344.3,16.51,-18.89,-22.47,0,*43
1497189794.32,22531,21.31,74342.3,16.51,-20.73,-23.43,0,*49
1497189795.55,22532,21.31,74340.3,16.49,-20.29,-22.77,0,*4A
1497189796.75,22533,21.31,74342.5,16.49,-20.29,-22.93,0,*41
1497189798.03,22534,21.38,74344.5,16.47,-20.19,-22.17,0,*47
1497189799.25,22535,21.31,74342.5,16.49,-19.17,-21.47,0,*4A
1497189800.48,22536,21.38,74346.0,16.49,-15.15,-17.79,0,*4F
1497189801.71,22537,21.38,74344.5,16.51,-15.11,-18.07,0,*45
1497189802.98,22538,21.38,74346.3,16.51,-17.93,-21.39,0,*45
1497189804.2,22539,21.38,74346.8,16.51,-20.29,-23.89,0,*48
1497189805.47,22540,21.38,74344.5,16.51,-19.03,-22.47,0,*47
1497189806.74,22541,21.31,74346.5,16.51,-19.17,-22.31,0,*42
1497189807.99,22542,21.38,74348.5,16.51,-20.09,-22.73,0,*42
1497189809.2,22543,21.38,74348.5,16.49,-20.09,-22.57,0,*4C
1497189810.41,22544,21.38,74348.5,16.49,-20.89,-23.13,0,*42
1497189811.68,22545,21.31,74346.8,16.47,-22.17,-23.43,0,*4D
1497189812.91,22546,21.31,74342.5,16.47,-23.13,-24.31,0,*49
1497189814.2,22547,21.31,74346.8,16.47,-22.17,-22.77,0,*49
1497189815.43,22548,21.38,74348.5,16.49,-21.17,-21.97,0,*46
1497189816.67,22549,21.38,74352.0,16.47,-21.43,-22.53,0,*43
1497189817.93,22550,21.38,74346.8,16.47,-21.03,-22.11,0,*49
1497189819.19,22551,21.38,74348.5,16.47,-21.39,-22.17,0,*47
1497189820.44,22552,21.38,74350.3,16.47,-20.93,-21.57,0,*42
1497189821.67,22553,21.38,74348.0,16.47,-20.63,-21.73,0,*4A
1497189822.94,22554,21.31,74346.0,16.47,-18.93,-20.43,0,*4B
1497189824.18,22555,21.38,74350.0,16.47,-19.51,-20.29,0,*49
1497189825.43,22556,21.38,74344.8,16.49,-20.15,-21.33,0,*44
1497189826.67,22557,21.31,74344.5,16.51,-19.95,-21.17,0,*48
1497189827.92,22558,21.38,74348.5,16.55,-20.19,-21.73,0,*4F
1497189829.21,22559,21.38,74346.8,16.51,-19.31,-20.99,0,*4F
1497189830.45,22560,21.38,74344.8,16.55,-18.49,-20.63,0,*4A
1497189831.71,22561,21.31,74346.0,16.55,-20.39,-21.87,0,*4C
1497189832.95,22562,21.31,74346.8,16.55,-18.69,-20.39,0,*45
1497189834.22,22563,21.38,74346.8,16.59,-19.13,-20.35,0,*48
1497189835.48,22564,21.38,74344.0,16.59,-19.81,-20.59,0,*4E
1497189836.68,22565,21.38,74344.8,16.61,-20.69,-20.69,0,*4B
1497189837.94,22566,21.38,74344.5,16.59,-20.35,-20.73,0,*41
1497189839.22,22567,21.38,74346.8,16.59,-19.65,-21.03,0,*49
1497189840.46,22568,21.38,74346.3,16.55,-18.83,-22.03,0,*40
1497189841.74,22569,21.38,74344.8,16.55,-15.39,-19.27,0,*43
1497189842.97,22570,21.38,74346.0,16.59,-15.07,-18.65,0,*4D
1497189844.25,22571,21.38,74342.5,16.55,-16.13,-20.35,0,*48
1497189845.48,22572,21.38,74342.5,16.61,-16.51,-19.37,0,*42
1497189846.69,22573,21.38,74344.0,16.61,-14.89,-17.69,0,*41
1497189847.94,22574,21.38,74344.5,16.63,-15.11,-17.97,0,*45
1497189849.14,22575,21.38,74346.5,16.61,-18.99,-22.57,0,*41
1497189850.35,22576,21.38,74342.3,16.61,-17.35,-21.63,0,*4F
1497189851.58,22577,21.38,74346.8,16.59,-16.03,-21.39,0,*4E
1497189852.85,22578,21.38,74346.5,16.59,-18.73,-21.87,0,*4D
1497189854.1,22579,21.38,74342.5,16.55,-17.11,-20.63,0,*40
1497189855.34,22580,21.38,74346.8,16.55,-15.53,-19.75,0,*4F
1497189856.55,22581,21.38,74344.3,16.61,-14.97,-18.99,0,*43
1497189857.84,22582,21.38,74344.0,16.59,-17.97,-21.67,0,*43
1497189859.08,22583,21.38,74344.3,16.55,-21.13,-25.09,0,*4B
1497189860.36,22584,21.38,74342.8,16.55,-22.21,-25.97,0,*49
1497189861.63,22585,21.38,74344.8,16.49,-24.71,-28.59,0,*49
1497189862.91,22586,21.38,74346.0,16.47,-19.81,-25.03,0,*47
1497189864.14,22587,21.38,74344.8,16.45,-20.83,-24.97,0,*40
1497189865.35,22588,21.38,74346.3,16.45,-21.43,-24.77,0,*4C
1497189866.55,22589,21.38,74342.3,16.43,-23.39,-26.49,0,*4B
1497189867.76,22590,21.38,74344.3,16.39,-21.17,-24.35,0,*49
1497189868.99,22591,21.38,74344.8,16.39,-23.29,-25.39,0,*4A
1497189870.23,22592,21.38,74340.0,16.37,-24.05,-26.23,0,*46
1497189871.51,22593,21.38,74344.8,16.33,-23.85,-25.45,0,*4F
1497189872.8,22594,21.38,74342.8,16.33,-21.57,-22.73,0,*47
1497189874.05,22595,21.38,74344.3,16.33,-21.13,-23.65,0,*40
1497189875.31,22596,21.38,74346.3,16.33,-21.09,-23.03,0,*48
1497189876.55,22597,21.38,74340.3,16.33,-23.79,-26.61,0,*4D
1497189877.76,22598,21.38,74342.0,16.31,-22.93,-26.61,0,*45
1497189879.0,22599,21.38,74342.0,16.27,-18.65,-23.49,0,*4C
1497189880.26,22600,21.38,74342.0,16.29,-20.79,-22.97,0,*45
1497189881.5,22601,21.38,74336.3,16.29,-18.49,-21.39,0,*4B
1497189882.76,22602,21.38,74338.8,16.31,-13.83,-16.27,0,*47
1497189883.99,22603,21.38,74342.5,16.31,-11.97,-15.99,0,*47
1497189885.22,22604,21.38,74342.3,16.33,-10.53,-15.67,0,*4A
1497189886.48,22605,21.38,74342.5,16.33,-11.11,-16.69,0,*41
1497189887.72,22606,21.38,74336.8,16.33,-13.19,-17.31,0,*44
1497189888.95,22607,21.38,74342.8,16.31,-15.75,-21.33,0,*4C
1497189890.19,22608,21.38,74340.5,16.31,-19.91,-23.23,0,*46
1497189891.41,22609,21.38,74336.8,16.31,-18.83,-21.17,0,*40
1497189892.62,22610,21.38,74336.3,16.31,-19.13,-22.07,0,*42
1497189893.83,22611,21.38,74336.3,16.31,-15.99,-17.69,0,*43
1497189895.09,22612,21.38,74340.0,16.29,-15.15,-17.97,0,*4C
1497189896.35,22613,21.38,74338.5,16.29,-15.89,-20.09,0,*4B
1497189897.56,22614,21.38,74338.5,16.23,-16.89,-20.05,0,*49
1497189898.8,22615,21.38,74336.0,16.19,-17.63,-20.63,0,*44
1497189900.04,22616,21.38,74336.3,16.19,-19.03,-23.53,0,*4F
1497189901.25,22617,21.38,74338.5,16.19,-20.63,-22.97,0,*4B
1497189902.49,22618,21.38,74338.8,16.15,-20.19,-22.03,0,*48
1497189903.72,22619,21.38,74338.8,16.15,-19.91,-20.99,0,*42
1497189905.01,22620,21.38,74338.3,16.13,-17.45,-21.97,0,*46
1497189906.25,22621,21.38,74340.0,16.13,-16.59,-22.11,0,*46
1497189907.47,22622,21.38,74340.0,16.11,-18.11,-20.83,0,*4C
1497189908.74,22623,21.38,74338.8,16.13,-20.39,-21.03,0,*47
1497189909.93,22624,21.38,74340.5,16.11,-20.69,-24.61,0,*46
1497189911.13,22625,21.38,74342.3,16.07,-18.45,-21.39,0,*4D
1497189912.41,22626,21.38,74342.3,16.05,-22.21,-25.29,0,*42
1497189913.63,22627,21.38,74342.5,16.03,-20.69,-23.33,0,*46
1497189914.85,22628,21.38,74340.0,16.01,-19.47,-22.07,0,*4B
1497189916.1,22629,21.38,74342.0,16.03,-18.35,-21.87,0,*47
1497189917.38,22630,21.38,74340.3,16.01,-17.45,-20.83,0,*40
1497189918.63,22631,21.38,74338.5,16.01,-20.89,-23.33,0,*4D
1497189919.82,22632,21.38,74338.5,16.03,-17.31,-19.95,0,*4E
1497189921.05,22633,21.38,74340.8,16.03,-16.41,-19.31,0,*47
1497189922.31,22634,21.38,74342.0,16.03,-19.27,-21.33,0,*46
1497189923.55,22635,21.38,74338.0,16.01,-23.65,-23.89,0,*49
1497189924.77,22636,21.38,74340.3,15.99,-23.23,-23.75,0,*49
1497189926.05,22637,21.38,74342.3,15.97,-23.03,-22.21,0,*44
1497189927.27,22638,21.38,74340.3,15.95,-21.67,-20.05,0,*4D
1497189928.55,22639,21.38,74342.3,15.93,-19.27,-18.55,0,*4B
1497189929.76,22640,21.38,74338.0,15.93,-16.89,-18.25,0,*49
1497189931.02,22641,21.38,74338.3,15.97,-15.53,-17.07,0,*47
1497189932.25,22642,21.38,74338.8,15.95,-14.51,-15.95,0,*4C
1497189933.51,22643,21.38,74342.8,15.95,-14.01,-15.81,0,*4D
1497189934.75,22644,21.38,74342.5,15.97,-12.35,-13.93,0,*4C
1497189936.0,22645,21.38,74338.0,15.99,-12.61,-14.47,0,*4C
1497189937.25,22646,21.38,74340.3,15.99,-11.77,-12.61,0,*49
1497189938.5,22647,21.38,74338.5,16.01,-11.01,-12.53,0,*4A
1497189939.75,22648,21.38,74340.3,16.01,-13.23,-16.13,0,*47
1497189941.01,22649,21.38,74340.5,16.03,-12.07,-12.35,0,*43
1497189942.2,22650,21.38,74340.8,16.03,-12.97,-13.55,0,*45
1497189943.43,22651,21.38,74342.5,16.03,-11.23,-13.37,0,*4C
1497189944.67,22652,21.38,74342.8,16.03,-10.63,-13.37,0,*4A
1497189945.92,22653,21.38,74342.3,16.05,-12.65,-12.93,0,*46
1497189947.14,22654,21.38,74342.3,16.07,-12.43,-12.11,0,*4D
1497189948.37,22655,21.38,74342.8,16.07,-12.25,-11.97,0,*41
1497189949.62,22656,21.38,74344.5,16.07,-11.77,-11.59,0,*44
1497189950.9,22657,21.38,74344.0,16.13,-11.97,-11.73,0,*46
1497189952.12,22658,21.38,74344.0,16.13,-10.05,-9.89,0,*7F
1497189953.36,22659,21.38,74344.8,16.13,-11.15,-10.97,0,*49
1497189954.57,22660,21.38,74350.8,16.15,-10.27,-10.09,0,*42
1497189955.81,22661,21.38,74346.5,16.17,-10.57,-11.23,0,*4F
1497189957.07,22662,21.38,74348.8,16.21,-12.11,-12.29,0,*40
1497189958.32,22663,21.38,74346.8,16.19,-11.45,-11.89,0,*41
1497189959.58,22664,21.38,74346.5,16.21,-11.45,-12.11,0,*4F
1497189960.82,22665,21.38,74348.5,16.23,-12.75,-13.19,0,*45
1497189962.06,22666,21.38,74346.8,16.19,-12.83,-12.47,0,*4C
1497189963.3,22667,21.38,74346.5,16.19,-10.93,-11.51,0,*4A
1497189964.55,22668,21.38,74344.3,16.21,-11.81,-11.45,0,*49
1497189965.82,22669,21.38,74348.3,16.19,-11.59,-11.07,0,*40
1497189967.08,22670,21.38,74350.0,16.21,-11.45,-12.15,0,*4E
1497189968.37,22671,21.38,74350.0,16.21,-11.85,-13.97,0,*48
1497189969.6,22672,21.38,74344.3,16.23,-10.93,-12.61,0,*47
1497189970.8,22673,21.38,74350.0,16.23,-10.09,-10.85,0,*4D
1497189972.01,22674,21.38,74346.3,16.23,-9.27,-10.53,0,*75
1497189973.23,22675,21.38,74344.0,16.27,-9.31,-11.33,0,*70
1497189974.44,22676,21.38,74346.0,16.27,-9.31,-12.47,0,*73
1497189975.7,22677,21.38,74348.3,16.29,-9.31,-11.73,0,*78
1497189976.93,22678,21.38,74346.0,16.31,-10.23,-11.55,0,*41
1497189978.17,22679,21.38,74346.5,16.31,-10.01,-11.67,0,*41
1497189979.41,22680,21.38,74344.8,16.37,-10.05,-11.77,0,*44
1497189980.66,22681,21.38,74346.0,16.37,-8.59,-11.85,0,*78
1497189981.9,22682,21.38,74346.3,16.41,-6.55,-10.01,0,*75
1497189983.15,22683,21.38,74344.8,16.43,-7.77,-10.75,0,*74
1497189984.39,22684,21.38,74346.3,16.49,-9.79,-14.01,0,*7E
1497189985.61,22685,21.38,74344.8,16.49,-9.97,-14.55,0,*7E
1497189986.86,22686,21.38,74346.8,16.51,-9.49,-14.11,0,*77
1497189988.08,22687,21.38,74346.8,16.53,-9.37,-13.93,0,*70
1497189989.36,22688,21.38,74342.5,16.55,-12.71,-17.21,0,*4C
1497189990.62,22689,21.38,74342.3,16.55,-12.93,-17.63,0,*47
1497189991.87,22690,21.38,74342.5,16.55,-14.43,-18.83,0,*45
1497189993.11,22691,21.38,74346.0,16.53,-13.51,-18.01,0,*4C
1497189994.32,22692,21.38,74344.3,16.53,-12.21,-16.83,0,*4D
1497189995.61,22693,21.38,74348.0,16.51,-11.55,-16.17,0,*43
1497189996.84,22694,21.38,74344.3,16.51,-10.09,-15.15,0,*4D
1497189998.14,22695,21.38,74344.5,16.51,-12.75,-17.11,0,*43
1497189999.4,22696,21.38,74348.3,16.51,-15.43,-17.35,0,*44
1497190000.66,22697,21.38,74346.5,16.47,-14.89,-15.89,0,*40
1497190001.92,22698,21.38,74348.0,16.47,-12.93,-13.01,0,*44
1497190003.2,22699,21.38,74344.0,16.47,-12.07,-11.33,0,*4B
1497190004.47,22700,21.38,74344.8,16.47,-10.15,-10.79,0,*44
1497190005.75,22701,21.38,74346.3,16.47,-11.73,-11.93,0,*41
1497190007.0,22702,21.38,74348.5,16.43,-11.67,-9.15,0,*74
1497190008.23,22703,21.38,74348.0,16.43,-8.97,-7.73,0,*4C
1497190009.45,22704,21.38,74346.8,16.45,-6.27,-5.97,0,*40
1497190010.7,22705,21.38,74346.3,16.45,-7.27,-7.57,0,*4E
1497190011.98,22706,21.38,74344.8,16.47,-7.43,-8.07,0,*47
1497190013.2,22707,21.38,74348.8,16.45,-7.53,-7.65,0,*4E
1497190014.4,22708,21.38,74348.3,16.43,-5.51,-6.05,0,*40
1497190015.63,22709,21.38,74350.5,16.45,-3.67,-3.75,0,*46
1497190016.85,22710,21.38,74350.0,16.47,-3.07,-3.39,0,*42
1497190018.09,22711,21.38,74346.8,16.49,-5.11,-5.61,0,*47
1497190019.32,22712,21.38,74346.5,16.49,-5.89,-7.11,0,*40
1497190020.52,22713,21.38,74348.8,16.49,-4.57,-6.39,0,*48
1497190021.77,22714,21.38,74352.3,16.51,-3.95,-7.05,0,*41
1497190023.05,22715,21.38,74350.0,16.51,-4.01,-7.99,0,*4F
1497190024.29,22716,21.38,74350.5,16.53,-2.67,-5.77,0,*4A
1497190025.56,22717,21.38,74348.5,16.55,-2.55,-6.23,0,*4E
1497190026.78,22718,21.38,74350.0,16.63,-3.35,-6.43,0,*45
1497190028.02,22719,21.38,74348.8,16.67,-3.23,-6.27,0,*45
1497190029.26,22720,21.38,74348.3,16.67,-4.49,-7.69,0,*4F
1497190030.5,22721,21.38,74346.8,16.71,-4.49,-7.39,0,*4C
1497190031.75,22722,21.38,74348.0,16.75,-5.19,-8.17,0,*4C
1497190032.98,22723,21.38,74350.8,16.77,-3.79,-6.35,0,*41
1497190034.22,22724,21.38,74348.8,16.81,-2.99,-5.93,0,*4F
1497190035.51,22725,21.38,74346.8,16.77,-5.69,-10.67,0,*70
1497190036.72,22726,21.38,74346.3,16.81,-6.05,-9.27,0,*4F
1497190037.94,22727,21.38,74342.3,16.85,-6.05,-9.93,0,*45
1497190039.19,22728,21.38,74342.8,16.85,-7.05,-11.41,0,*7D
1497190040.47,22729,21.38,74346.8,16.89,-7.99,-11.29,0,*7B
1497190041.66,22730,21.38,74344.5,16.91,-6.05,-8.45,0,*4C
1497190042.9,22731,21.38,74344.3,16.93,-5.65,-8.67,0,*4A
1497190044.13,22732,21.38,74348.3,16.93,-5.61,-8.55,0,*4C
1497190045.35,22733,21.38,74344.8,16.95,-7.61,-12.25,0,*75
1497190046.63,22734,21.38,74346.8,16.97,-8.51,-14.05,0,*78
1497190047.86,22735,21.38,74342.0,16.97,-9.01,-13.65,0,*7C
1497190049.09,22736,21.38,74342.5,17.01,-10.89,-15.29,0,*47
1497190050.29,22737,21.38,74342.5,16.99,-10.53,-15.07,0,*4D
1497190051.54,22738,21.38,74346.0,17.01,-10.63,-13.73,0,*44
1497190052.76,22739,21.38,74344.0,17.01,-9.93,-12.29,0,*7C
1497190054.01,22740,21.38,74346.3,17.05,-11.45,-13.29,0,*45
1497190055.26,22741,21.38,74346.8,17.05,-8.17,-10.63,0,*76
1497190056.49,22742,21.38,74346.3,17.05,-8.45,-14.29,0,*78
1497190057.71,22743,21.38,74344.8,17.07,-11.37,-17.49,0,*43
1497190058.91,22744,21.38,74346.5,17.07,-11.41,-17.73,0,*4C
1497190060.12,22745,21.38,74346.3,17.07,-10.57,-17.35,0,*49
1497190061.34,22746,21.38,74348.3,17.07,-10.31,-17.25,0,*4B
1497190062.6,22747,21.38,74344.8,17.05,-11.67,-19.13,0,*41
1497190063.82,22748,21.38,74346.8,17.07,-10.27,-18.55,0,*4A
1497190065.04,22749,21.38,74348.0,17.09,-11.19,-20.15,0,*46
1497190066.25,22750,21.38,74346.5,17.05,-9.89,-19.03,0,*7F
1497190067.48,22751,21.38,74344.8,17.05,-10.89,-19.91,0,*4D
1497190068.7,22752,21.38,74346.3,17.01,-12.03,-21.13,0,*4B
1497190069.91,22753,21.38,74346.3,16.99,-13.19,-22.53,0,*47
1497190071.14,22754,21.38,74344.5,16.99,-13.47,-22.77,0,*4D
1497190072.34,22755,21.44,74344.5,16.95,-13.47,-22.67,0,*41
1497190073.57,22756,21.38,74350.5,16.95,-12.39,-21.27,0,*4D
1497190074.83,22757,21.38,74344.5,16.97,-11.07,-19.99,0,*4E
1497190076.09,22758,21.38,74346.3,16.95,-13.97,-23.19,0,*49
1497190077.32,22759,21.38,74342.8,16.95,-14.47,-22.41,0,*4E
1497190078.56,22760,21.38,74344.5,16.93,-13.43,-21.17,0,*41
1497190079.82,22761,21.38,74342.8,16.95,-13.37,-20.53,0,*44
1497190081.04,22762,21.38,74344.8,16.95,-15.39,-22.83,0,*40
1497190082.3,22763,21.38,74346.5,16.93,-14.43,-21.13,0,*41
1497190083.55,22764,21.44,74346.3,16.93,-13.83,-19.47,0,*47
1497190084.78,22765,21.38,74342.3,16.93,-15.25,-21.47,0,*47
1497190086.04,22766,21.38,74342.3,16.95,-14.51,-19.85,0,*45
1497190087.3,22767,21.38,74344.5,16.95,-14.79,-19.57,0,*41
1497190088.58,22768,21.44,74346.5,16.93,-14.83,-19.65,0,*4C
1497190089.83,22769,21.38,74344.3,16.93,-15.11,-18.35,0,*43
1497190091.09,22770,21.38,74344.8,16.97,-14.23,-17.11,0,*46
1497190092.34,22771,21.44,74346.8,16.95,-15.81,-19.23,0,*43
1497190093.57,22772,21.44,74344.8,16.93,-14.29,-18.11,0,*45
1497190094.78,22773,21.38,74344.5,16.95,-13.73,-18.21,0,*49
1497190096.03,22774,21.44,74346.0,16.95,-13.61,-17.11,0,*41
1497190097.31,22775,21.38,74344.0,16.97,-14.93,-17.79,0,*46
1497190098.54,22776,21.38,74346.3,16.95,-18.01,-22.07,0,*4F